Index of /20260430/WXO-DD/model_gdps/15km/00/072
Name Last modified Size Description
Parent Directory -
20260430T00Z_MSC_GDPS_AbsoluteVorticity_IsbL-0200_LatLon0.15_PT072H.grib2 2026-04-30 04:17 1.5M
20260430T00Z_MSC_GDPS_AbsoluteVorticity_IsbL-0250_LatLon0.15_PT072H.grib2 2026-04-30 04:17 1.3M
20260430T00Z_MSC_GDPS_AbsoluteVorticity_IsbL-0500_LatLon0.15_PT072H.grib2 2026-04-30 04:17 1.5M
20260430T00Z_MSC_GDPS_AbsoluteVorticity_IsbL-0700_LatLon0.15_PT072H.grib2 2026-04-30 04:17 1.3M
20260430T00Z_MSC_GDPS_AbsoluteVorticity_IsbL-0850_LatLon0.15_PT072H.grib2 2026-04-30 04:17 1.6M
20260430T00Z_MSC_GDPS_AirTemp-Max_AGL-2m_LatLon0.15_PT072H.grib2 2026-04-30 04:17 742K
20260430T00Z_MSC_GDPS_AirTemp-Min_AGL-2m_LatLon0.15_PT072H.grib2 2026-04-30 04:17 793K
20260430T00Z_MSC_GDPS_AirTemp_AGL-120m_LatLon0.15_PT072H.grib2 2026-04-30 04:17 909K
20260430T00Z_MSC_GDPS_AirTemp_AGL-2m_LatLon0.15_PT072H.grib2 2026-04-30 04:17 1.0M
20260430T00Z_MSC_GDPS_AirTemp_AGL-40m_LatLon0.15_PT072H.grib2 2026-04-30 04:17 930K
20260430T00Z_MSC_GDPS_AirTemp_AGL-80m_LatLon0.15_PT072H.grib2 2026-04-30 04:17 919K
20260430T00Z_MSC_GDPS_AirTemp_IsbL-0001_LatLon0.15_PT072H.grib2 2026-04-30 04:17 715K
20260430T00Z_MSC_GDPS_AirTemp_IsbL-0005_LatLon0.15_PT072H.grib2 2026-04-30 04:17 687K
20260430T00Z_MSC_GDPS_AirTemp_IsbL-0010_LatLon0.15_PT072H.grib2 2026-04-30 04:17 689K
20260430T00Z_MSC_GDPS_AirTemp_IsbL-0020_LatLon0.15_PT072H.grib2 2026-04-30 04:17 787K
20260430T00Z_MSC_GDPS_AirTemp_IsbL-0030_LatLon0.15_PT072H.grib2 2026-04-30 04:17 753K
20260430T00Z_MSC_GDPS_AirTemp_IsbL-0050_LatLon0.15_PT072H.grib2 2026-04-30 04:17 810K
20260430T00Z_MSC_GDPS_AirTemp_IsbL-0100_LatLon0.15_PT072H.grib2 2026-04-30 04:17 966K
20260430T00Z_MSC_GDPS_AirTemp_IsbL-0150_LatLon0.15_PT072H.grib2 2026-04-30 04:17 1.0M
20260430T00Z_MSC_GDPS_AirTemp_IsbL-0175_LatLon0.15_PT072H.grib2 2026-04-30 04:17 962K
20260430T00Z_MSC_GDPS_AirTemp_IsbL-0200_LatLon0.15_PT072H.grib2 2026-04-30 04:17 1.0M
20260430T00Z_MSC_GDPS_AirTemp_IsbL-0225_LatLon0.15_PT072H.grib2 2026-04-30 04:17 1.0M
20260430T00Z_MSC_GDPS_AirTemp_IsbL-0250_LatLon0.15_PT072H.grib2 2026-04-30 04:17 1.0M
20260430T00Z_MSC_GDPS_AirTemp_IsbL-0275_LatLon0.15_PT072H.grib2 2026-04-30 04:17 1.0M
20260430T00Z_MSC_GDPS_AirTemp_IsbL-0300_LatLon0.15_PT072H.grib2 2026-04-30 04:17 1.0M
20260430T00Z_MSC_GDPS_AirTemp_IsbL-0350_LatLon0.15_PT072H.grib2 2026-04-30 04:17 924K
20260430T00Z_MSC_GDPS_AirTemp_IsbL-0400_LatLon0.15_PT072H.grib2 2026-04-30 04:17 939K
20260430T00Z_MSC_GDPS_AirTemp_IsbL-0450_LatLon0.15_PT072H.grib2 2026-04-30 04:17 959K
20260430T00Z_MSC_GDPS_AirTemp_IsbL-0500_LatLon0.15_PT072H.grib2 2026-04-30 04:17 1.0M
20260430T00Z_MSC_GDPS_AirTemp_IsbL-0550_LatLon0.15_PT072H.grib2 2026-04-30 04:17 802K
20260430T00Z_MSC_GDPS_AirTemp_IsbL-0600_LatLon0.15_PT072H.grib2 2026-04-30 04:17 891K
20260430T00Z_MSC_GDPS_AirTemp_IsbL-0650_LatLon0.15_PT072H.grib2 2026-04-30 04:17 917K
20260430T00Z_MSC_GDPS_AirTemp_IsbL-0700_LatLon0.15_PT072H.grib2 2026-04-30 04:17 948K
20260430T00Z_MSC_GDPS_AirTemp_IsbL-0750_LatLon0.15_PT072H.grib2 2026-04-30 04:17 1.0M
20260430T00Z_MSC_GDPS_AirTemp_IsbL-0800_LatLon0.15_PT072H.grib2 2026-04-30 04:17 1.1M
20260430T00Z_MSC_GDPS_AirTemp_IsbL-0850_LatLon0.15_PT072H.grib2 2026-04-30 04:17 1.1M
20260430T00Z_MSC_GDPS_AirTemp_IsbL-0875_LatLon0.15_PT072H.grib2 2026-04-30 04:17 1.1M
20260430T00Z_MSC_GDPS_AirTemp_IsbL-0900_LatLon0.15_PT072H.grib2 2026-04-30 04:17 1.1M
20260430T00Z_MSC_GDPS_AirTemp_IsbL-0925_LatLon0.15_PT072H.grib2 2026-04-30 04:17 1.1M
20260430T00Z_MSC_GDPS_AirTemp_IsbL-0950_LatLon0.15_PT072H.grib2 2026-04-30 04:17 1.1M
20260430T00Z_MSC_GDPS_AirTemp_IsbL-0970_LatLon0.15_PT072H.grib2 2026-04-30 04:17 1.1M
20260430T00Z_MSC_GDPS_AirTemp_IsbL-0985_LatLon0.15_PT072H.grib2 2026-04-30 04:17 1.1M
20260430T00Z_MSC_GDPS_AirTemp_IsbL-1000_LatLon0.15_PT072H.grib2 2026-04-30 04:17 1.1M
20260430T00Z_MSC_GDPS_AirTemp_IsbL-1015_LatLon0.15_PT072H.grib2 2026-04-30 04:17 1.1M
20260430T00Z_MSC_GDPS_Albedo_Sfc_LatLon0.15_PT072H.grib2 2026-04-30 04:17 242K
20260430T00Z_MSC_GDPS_CAPE_Sfc_LatLon0.15_PT072H.grib2 2026-04-30 04:17 3.9M
20260430T00Z_MSC_GDPS_CIN_Sfc_LatLon0.15_PT072H.grib2 2026-04-30 04:17 3.0M
20260430T00Z_MSC_GDPS_CloudWater_EAtm_LatLon0.15_PT072H.grib2 2026-04-30 04:17 532K
20260430T00Z_MSC_GDPS_ConvectivePrecip-Accum_Sfc_LatLon0.15_PT072H.grib2 2026-04-30 04:17 3.3M
20260430T00Z_MSC_GDPS_DewPointDepression_AGL-2m_LatLon0.15_PT072H.grib2 2026-04-30 04:17 764K
20260430T00Z_MSC_GDPS_DewPointDepression_IsbL-0010_LatLon0.15_PT072H.grib2 2026-04-30 04:17 66K
20260430T00Z_MSC_GDPS_DewPointDepression_IsbL-0020_LatLon0.15_PT072H.grib2 2026-04-30 04:17 67K
20260430T00Z_MSC_GDPS_DewPointDepression_IsbL-0030_LatLon0.15_PT072H.grib2 2026-04-30 04:17 83K
20260430T00Z_MSC_GDPS_DewPointDepression_IsbL-0050_LatLon0.15_PT072H.grib2 2026-04-30 04:17 379K
20260430T00Z_MSC_GDPS_DewPointDepression_IsbL-0100_LatLon0.15_PT072H.grib2 2026-04-30 04:17 414K
20260430T00Z_MSC_GDPS_DewPointDepression_IsbL-0150_LatLon0.15_PT072H.grib2 2026-04-30 04:17 465K
20260430T00Z_MSC_GDPS_DewPointDepression_IsbL-0175_LatLon0.15_PT072H.grib2 2026-04-30 04:17 577K
20260430T00Z_MSC_GDPS_DewPointDepression_IsbL-0200_LatLon0.15_PT072H.grib2 2026-04-30 04:17 680K
20260430T00Z_MSC_GDPS_DewPointDepression_IsbL-0225_LatLon0.15_PT072H.grib2 2026-04-30 04:17 775K
20260430T00Z_MSC_GDPS_DewPointDepression_IsbL-0250_LatLon0.15_PT072H.grib2 2026-04-30 04:17 854K
20260430T00Z_MSC_GDPS_DewPointDepression_IsbL-0275_LatLon0.15_PT072H.grib2 2026-04-30 04:17 871K
20260430T00Z_MSC_GDPS_DewPointDepression_IsbL-0300_LatLon0.15_PT072H.grib2 2026-04-30 04:17 911K
20260430T00Z_MSC_GDPS_DewPointDepression_IsbL-0350_LatLon0.15_PT072H.grib2 2026-04-30 04:17 944K
20260430T00Z_MSC_GDPS_DewPointDepression_IsbL-0400_LatLon0.15_PT072H.grib2 2026-04-30 04:17 1.0M
20260430T00Z_MSC_GDPS_DewPointDepression_IsbL-0450_LatLon0.15_PT072H.grib2 2026-04-30 04:17 1.0M
20260430T00Z_MSC_GDPS_DewPointDepression_IsbL-0500_LatLon0.15_PT072H.grib2 2026-04-30 04:17 1.0M
20260430T00Z_MSC_GDPS_DewPointDepression_IsbL-0550_LatLon0.15_PT072H.grib2 2026-04-30 04:17 1.0M
20260430T00Z_MSC_GDPS_DewPointDepression_IsbL-0600_LatLon0.15_PT072H.grib2 2026-04-30 04:17 1.0M
20260430T00Z_MSC_GDPS_DewPointDepression_IsbL-0650_LatLon0.15_PT072H.grib2 2026-04-30 04:17 1.1M
20260430T00Z_MSC_GDPS_DewPointDepression_IsbL-0700_LatLon0.15_PT072H.grib2 2026-04-30 04:17 1.1M
20260430T00Z_MSC_GDPS_DewPointDepression_IsbL-0750_LatLon0.15_PT072H.grib2 2026-04-30 04:17 1.1M
20260430T00Z_MSC_GDPS_DewPointDepression_IsbL-0800_LatLon0.15_PT072H.grib2 2026-04-30 04:17 1.2M
20260430T00Z_MSC_GDPS_DewPointDepression_IsbL-0850_LatLon0.15_PT072H.grib2 2026-04-30 04:17 1.2M
20260430T00Z_MSC_GDPS_DewPointDepression_IsbL-0875_LatLon0.15_PT072H.grib2 2026-04-30 04:17 1.1M
20260430T00Z_MSC_GDPS_DewPointDepression_IsbL-0900_LatLon0.15_PT072H.grib2 2026-04-30 04:17 1.1M
20260430T00Z_MSC_GDPS_DewPointDepression_IsbL-0925_LatLon0.15_PT072H.grib2 2026-04-30 04:17 1.0M
20260430T00Z_MSC_GDPS_DewPointDepression_IsbL-0950_LatLon0.15_PT072H.grib2 2026-04-30 04:17 1.0M
20260430T00Z_MSC_GDPS_DewPointDepression_IsbL-0970_LatLon0.15_PT072H.grib2 2026-04-30 04:17 1.0M
20260430T00Z_MSC_GDPS_DewPointDepression_IsbL-0985_LatLon0.15_PT072H.grib2 2026-04-30 04:17 1.0M
20260430T00Z_MSC_GDPS_DewPointDepression_IsbL-1000_LatLon0.15_PT072H.grib2 2026-04-30 04:17 1.0M
20260430T00Z_MSC_GDPS_DewPointDepression_IsbL-1015_LatLon0.15_PT072H.grib2 2026-04-30 04:17 915K
20260430T00Z_MSC_GDPS_DewPoint_AGL-2m_LatLon0.15_PT072H.grib2 2026-04-30 04:17 603K
20260430T00Z_MSC_GDPS_DownwardLongwaveRadiationFlux-Accum_Sfc_LatLon0.15_PT072H.grib2 2026-04-30 04:17 911K
20260430T00Z_MSC_GDPS_DownwardShortwaveRadiationFlux-Accum_NTAtm_LatLon0.15_PT072H.grib2 2026-04-30 04:17 156K
20260430T00Z_MSC_GDPS_DownwardShortwaveRadiationFlux-Accum_Sfc_LatLon0.15_PT072H.grib2 2026-04-30 04:17 1.1M
20260430T00Z_MSC_GDPS_FreezingRain-Accum12h_Sfc_LatLon0.15_PT072H.grib2 2026-04-30 04:17 107K
20260430T00Z_MSC_GDPS_FreezingRain-Accum1h_Sfc_LatLon0.15_PT072H.grib2 2026-04-30 04:17 29K
20260430T00Z_MSC_GDPS_FreezingRain-Accum24h_Sfc_LatLon0.15_PT072H.grib2 2026-04-30 04:17 149K
20260430T00Z_MSC_GDPS_FreezingRain-Accum3h_Sfc_LatLon0.15_PT072H.grib2 2026-04-30 04:17 46K
20260430T00Z_MSC_GDPS_FreezingRain-Accum6h_Sfc_LatLon0.15_PT072H.grib2 2026-04-30 04:17 62K
20260430T00Z_MSC_GDPS_FreezingRain-Accum_Sfc_LatLon0.15_PT072H.grib2 2026-04-30 04:17 316K
20260430T00Z_MSC_GDPS_GeopotentialHeight_IsbL-0001_LatLon0.15_PT072H.grib2 2026-04-30 04:17 420K
20260430T00Z_MSC_GDPS_GeopotentialHeight_IsbL-0005_LatLon0.15_PT072H.grib2 2026-04-30 04:17 488K
20260430T00Z_MSC_GDPS_GeopotentialHeight_IsbL-0010_LatLon0.15_PT072H.grib2 2026-04-30 04:17 480K
20260430T00Z_MSC_GDPS_GeopotentialHeight_IsbL-0020_LatLon0.15_PT072H.grib2 2026-04-30 04:17 412K
20260430T00Z_MSC_GDPS_GeopotentialHeight_IsbL-0030_LatLon0.15_PT072H.grib2 2026-04-30 04:17 564K
20260430T00Z_MSC_GDPS_GeopotentialHeight_IsbL-0050_LatLon0.15_PT072H.grib2 2026-04-30 04:17 565K
20260430T00Z_MSC_GDPS_GeopotentialHeight_IsbL-0100_LatLon0.15_PT072H.grib2 2026-04-30 04:17 607K
20260430T00Z_MSC_GDPS_GeopotentialHeight_IsbL-0150_LatLon0.15_PT072H.grib2 2026-04-30 04:17 627K
20260430T00Z_MSC_GDPS_GeopotentialHeight_IsbL-0175_LatLon0.15_PT072H.grib2 2026-04-30 04:17 630K
20260430T00Z_MSC_GDPS_GeopotentialHeight_IsbL-0200_LatLon0.15_PT072H.grib2 2026-04-30 04:17 633K
20260430T00Z_MSC_GDPS_GeopotentialHeight_IsbL-0225_LatLon0.15_PT072H.grib2 2026-04-30 04:17 631K
20260430T00Z_MSC_GDPS_GeopotentialHeight_IsbL-0250_LatLon0.15_PT072H.grib2 2026-04-30 04:17 635K
20260430T00Z_MSC_GDPS_GeopotentialHeight_IsbL-0275_LatLon0.15_PT072H.grib2 2026-04-30 04:17 637K
20260430T00Z_MSC_GDPS_GeopotentialHeight_IsbL-0300_LatLon0.15_PT072H.grib2 2026-04-30 04:17 630K
20260430T00Z_MSC_GDPS_GeopotentialHeight_IsbL-0350_LatLon0.15_PT072H.grib2 2026-04-30 04:17 623K
20260430T00Z_MSC_GDPS_GeopotentialHeight_IsbL-0400_LatLon0.15_PT072H.grib2 2026-04-30 04:17 617K
20260430T00Z_MSC_GDPS_GeopotentialHeight_IsbL-0450_LatLon0.15_PT072H.grib2 2026-04-30 04:17 610K
20260430T00Z_MSC_GDPS_GeopotentialHeight_IsbL-0500_LatLon0.15_PT072H.grib2 2026-04-30 04:17 533K
20260430T00Z_MSC_GDPS_GeopotentialHeight_IsbL-0550_LatLon0.15_PT072H.grib2 2026-04-30 04:17 527K
20260430T00Z_MSC_GDPS_GeopotentialHeight_IsbL-0600_LatLon0.15_PT072H.grib2 2026-04-30 04:17 521K
20260430T00Z_MSC_GDPS_GeopotentialHeight_IsbL-0650_LatLon0.15_PT072H.grib2 2026-04-30 04:17 686K
20260430T00Z_MSC_GDPS_GeopotentialHeight_IsbL-0700_LatLon0.15_PT072H.grib2 2026-04-30 04:17 681K
20260430T00Z_MSC_GDPS_GeopotentialHeight_IsbL-0750_LatLon0.15_PT072H.grib2 2026-04-30 04:17 690K
20260430T00Z_MSC_GDPS_GeopotentialHeight_IsbL-0800_LatLon0.15_PT072H.grib2 2026-04-30 04:17 700K
20260430T00Z_MSC_GDPS_GeopotentialHeight_IsbL-0850_LatLon0.15_PT072H.grib2 2026-04-30 04:17 706K
20260430T00Z_MSC_GDPS_GeopotentialHeight_IsbL-0875_LatLon0.15_PT072H.grib2 2026-04-30 04:17 717K
20260430T00Z_MSC_GDPS_GeopotentialHeight_IsbL-0900_LatLon0.15_PT072H.grib2 2026-04-30 04:17 725K
20260430T00Z_MSC_GDPS_GeopotentialHeight_IsbL-0925_LatLon0.15_PT072H.grib2 2026-04-30 04:17 733K
20260430T00Z_MSC_GDPS_GeopotentialHeight_IsbL-0950_LatLon0.15_PT072H.grib2 2026-04-30 04:17 741K
20260430T00Z_MSC_GDPS_GeopotentialHeight_IsbL-0970_LatLon0.15_PT072H.grib2 2026-04-30 04:17 751K
20260430T00Z_MSC_GDPS_GeopotentialHeight_IsbL-0985_LatLon0.15_PT072H.grib2 2026-04-30 04:17 768K
20260430T00Z_MSC_GDPS_GeopotentialHeight_IsbL-1000_LatLon0.15_PT072H.grib2 2026-04-30 04:17 788K
20260430T00Z_MSC_GDPS_GeopotentialHeight_IsbL-1015_LatLon0.15_PT072H.grib2 2026-04-30 04:17 809K
20260430T00Z_MSC_GDPS_Humidex_Sfc_LatLon0.15_PT072H.grib2 2026-04-30 04:17 5.3M
20260430T00Z_MSC_GDPS_IcePellets-Accum12h_Sfc_LatLon0.15_PT072H.grib2 2026-04-30 04:17 16K
20260430T00Z_MSC_GDPS_IcePellets-Accum1h_Sfc_LatLon0.15_PT072H.grib2 2026-04-30 04:17 2.6K
20260430T00Z_MSC_GDPS_IcePellets-Accum24h_Sfc_LatLon0.15_PT072H.grib2 2026-04-30 04:17 24K
20260430T00Z_MSC_GDPS_IcePellets-Accum3h_Sfc_LatLon0.15_PT072H.grib2 2026-04-30 04:17 3.7K
20260430T00Z_MSC_GDPS_IcePellets-Accum6h_Sfc_LatLon0.15_PT072H.grib2 2026-04-30 04:17 8.4K
20260430T00Z_MSC_GDPS_IcePellets-Accum_Sfc_LatLon0.15_PT072H.grib2 2026-04-30 04:17 71K
20260430T00Z_MSC_GDPS_KIndex_Sfc_LatLon0.15_PT072H.grib2 2026-04-30 04:17 6.5M
20260430T00Z_MSC_GDPS_LatentHeatNetFlux_Sfc_LatLon0.15_PT072H.grib2 2026-04-30 04:17 666K
20260430T00Z_MSC_GDPS_LiftedIndex-MU-VT_IsbL-0500_LatLon0.15_PT072H.grib2 2026-04-30 04:17 5.4M
20260430T00Z_MSC_GDPS_NetLongwaveRadiationFlux-Accum_Sfc_LatLon0.15_PT072H.grib2 2026-04-30 04:17 1.0M
20260430T00Z_MSC_GDPS_NetShortwaveRadiationFlux-Accum_Sfc_LatLon0.15_PT072H.grib2 2026-04-30 04:17 1.1M
20260430T00Z_MSC_GDPS_O3MixingRatio_Sfc_LatLon0.15_PT072H.grib2 2026-04-30 04:50 1.9M
20260430T00Z_MSC_GDPS_O3_EAtm_LatLon0.15_PT072H.grib2 2026-04-30 04:50 2.4M
20260430T00Z_MSC_GDPS_PlanetaryBoundaryLayerHeight_Sfc_LatLon0.15_PT072H.grib2 2026-04-30 04:17 2.4M
20260430T00Z_MSC_GDPS_Precip-Accum12h_Sfc_LatLon0.15_PT072H.grib2 2026-04-30 04:17 4.0M
20260430T00Z_MSC_GDPS_Precip-Accum1h_Sfc_LatLon0.15_PT072H.grib2 2026-04-30 04:17 3.2M
20260430T00Z_MSC_GDPS_Precip-Accum24h_Sfc_LatLon0.15_PT072H.grib2 2026-04-30 04:17 4.5M
20260430T00Z_MSC_GDPS_Precip-Accum3h_Sfc_LatLon0.15_PT072H.grib2 2026-04-30 04:17 3.5M
20260430T00Z_MSC_GDPS_Precip-Accum6h_Sfc_LatLon0.15_PT072H.grib2 2026-04-30 04:17 3.5M
20260430T00Z_MSC_GDPS_Precip-Accum_Sfc_LatLon0.15_PT072H.grib2 2026-04-30 04:17 5.2M
20260430T00Z_MSC_GDPS_PrecipRate_Sfc_LatLon0.15_PT072H.grib2 2026-04-30 04:17 3.0M
20260430T00Z_MSC_GDPS_PrecipType-Instant_Sfc_LatLon0.15_PT072H.grib2 2026-04-30 04:17 1.6M
20260430T00Z_MSC_GDPS_Pressure_MSL_LatLon0.15_PT072H.grib2 2026-04-30 04:17 721K
20260430T00Z_MSC_GDPS_Pressure_PVU-1.5_LatLon0.15_PT072H.grib2 2026-04-30 04:17 5.7M
20260430T00Z_MSC_GDPS_Pressure_PVU-1_LatLon0.15_PT072H.grib2 2026-04-30 04:17 6.0M
20260430T00Z_MSC_GDPS_Pressure_PVU-2_LatLon0.15_PT072H.grib2 2026-04-30 04:17 5.6M
20260430T00Z_MSC_GDPS_Pressure_Sfc_LatLon0.15_PT072H.grib2 2026-04-30 04:17 1.1M
20260430T00Z_MSC_GDPS_RadiativeTemp_Sfc_LatLon0.15_PT072H.grib2 2026-04-30 04:17 652K
20260430T00Z_MSC_GDPS_Rain-Accum12h_Sfc_LatLon0.15_PT072H.grib2 2026-04-30 04:17 2.7M
20260430T00Z_MSC_GDPS_Rain-Accum1h_Sfc_LatLon0.15_PT072H.grib2 2026-04-30 04:17 1.6M
20260430T00Z_MSC_GDPS_Rain-Accum24h_Sfc_LatLon0.15_PT072H.grib2 2026-04-30 04:17 3.2M
20260430T00Z_MSC_GDPS_Rain-Accum3h_Sfc_LatLon0.15_PT072H.grib2 2026-04-30 04:17 1.6M
20260430T00Z_MSC_GDPS_Rain-Accum6h_Sfc_LatLon0.15_PT072H.grib2 2026-04-30 04:17 2.3M
20260430T00Z_MSC_GDPS_Rain-Accum_Sfc_LatLon0.15_PT072H.grib2 2026-04-30 04:17 3.9M
20260430T00Z_MSC_GDPS_RelativeHumidity_AGL-2m_LatLon0.15_PT072H.grib2 2026-04-30 04:17 1.0M
20260430T00Z_MSC_GDPS_RelativeHumidity_IsbL-0010_LatLon0.15_PT072H.grib2 2026-04-30 04:17 132K
20260430T00Z_MSC_GDPS_RelativeHumidity_IsbL-0020_LatLon0.15_PT072H.grib2 2026-04-30 04:17 167K
20260430T00Z_MSC_GDPS_RelativeHumidity_IsbL-0030_LatLon0.15_PT072H.grib2 2026-04-30 04:17 269K
20260430T00Z_MSC_GDPS_RelativeHumidity_IsbL-0050_LatLon0.15_PT072H.grib2 2026-04-30 04:17 423K
20260430T00Z_MSC_GDPS_RelativeHumidity_IsbL-0100_LatLon0.15_PT072H.grib2 2026-04-30 04:17 511K
20260430T00Z_MSC_GDPS_RelativeHumidity_IsbL-0150_LatLon0.15_PT072H.grib2 2026-04-30 04:17 663K
20260430T00Z_MSC_GDPS_RelativeHumidity_IsbL-0175_LatLon0.15_PT072H.grib2 2026-04-30 04:17 781K
20260430T00Z_MSC_GDPS_RelativeHumidity_IsbL-0200_LatLon0.15_PT072H.grib2 2026-04-30 04:17 699K
20260430T00Z_MSC_GDPS_RelativeHumidity_IsbL-0225_LatLon0.15_PT072H.grib2 2026-04-30 04:17 787K
20260430T00Z_MSC_GDPS_RelativeHumidity_IsbL-0250_LatLon0.15_PT072H.grib2 2026-04-30 04:17 855K
20260430T00Z_MSC_GDPS_RelativeHumidity_IsbL-0275_LatLon0.15_PT072H.grib2 2026-04-30 04:17 877K
20260430T00Z_MSC_GDPS_RelativeHumidity_IsbL-0300_LatLon0.15_PT072H.grib2 2026-04-30 04:17 921K
20260430T00Z_MSC_GDPS_RelativeHumidity_IsbL-0350_LatLon0.15_PT072H.grib2 2026-04-30 04:17 943K
20260430T00Z_MSC_GDPS_RelativeHumidity_IsbL-0400_LatLon0.15_PT072H.grib2 2026-04-30 04:17 972K
20260430T00Z_MSC_GDPS_RelativeHumidity_IsbL-0450_LatLon0.15_PT072H.grib2 2026-04-30 04:17 1.0M
20260430T00Z_MSC_GDPS_RelativeHumidity_IsbL-0500_LatLon0.15_PT072H.grib2 2026-04-30 04:17 1.0M
20260430T00Z_MSC_GDPS_RelativeHumidity_IsbL-0550_LatLon0.15_PT072H.grib2 2026-04-30 04:17 1.0M
20260430T00Z_MSC_GDPS_RelativeHumidity_IsbL-0600_LatLon0.15_PT072H.grib2 2026-04-30 04:17 1.1M
20260430T00Z_MSC_GDPS_RelativeHumidity_IsbL-0650_LatLon0.15_PT072H.grib2 2026-04-30 04:17 1.1M
20260430T00Z_MSC_GDPS_RelativeHumidity_IsbL-0700_LatLon0.15_PT072H.grib2 2026-04-30 04:17 1.1M
20260430T00Z_MSC_GDPS_RelativeHumidity_IsbL-0750_LatLon0.15_PT072H.grib2 2026-04-30 04:17 1.2M
20260430T00Z_MSC_GDPS_RelativeHumidity_IsbL-0800_LatLon0.15_PT072H.grib2 2026-04-30 04:17 1.2M
20260430T00Z_MSC_GDPS_RelativeHumidity_IsbL-0850_LatLon0.15_PT072H.grib2 2026-04-30 04:17 1.3M
20260430T00Z_MSC_GDPS_RelativeHumidity_IsbL-0875_LatLon0.15_PT072H.grib2 2026-04-30 04:17 1.3M
20260430T00Z_MSC_GDPS_RelativeHumidity_IsbL-0900_LatLon0.15_PT072H.grib2 2026-04-30 04:17 1.3M
20260430T00Z_MSC_GDPS_RelativeHumidity_IsbL-0925_LatLon0.15_PT072H.grib2 2026-04-30 04:17 1.2M
20260430T00Z_MSC_GDPS_RelativeHumidity_IsbL-0950_LatLon0.15_PT072H.grib2 2026-04-30 04:17 1.2M
20260430T00Z_MSC_GDPS_RelativeHumidity_IsbL-0970_LatLon0.15_PT072H.grib2 2026-04-30 04:17 1.2M
20260430T00Z_MSC_GDPS_RelativeHumidity_IsbL-0985_LatLon0.15_PT072H.grib2 2026-04-30 04:17 1.2M
20260430T00Z_MSC_GDPS_RelativeHumidity_IsbL-1000_LatLon0.15_PT072H.grib2 2026-04-30 04:17 1.1M
20260430T00Z_MSC_GDPS_RelativeHumidity_IsbL-1015_LatLon0.15_PT072H.grib2 2026-04-30 04:17 1.0M
20260430T00Z_MSC_GDPS_RelativeVorticity_IsbL-0200_LatLon0.15_PT072H.grib2 2026-04-30 04:17 1.5M
20260430T00Z_MSC_GDPS_RelativeVorticity_IsbL-0250_LatLon0.15_PT072H.grib2 2026-04-30 04:17 1.6M
20260430T00Z_MSC_GDPS_RelativeVorticity_IsbL-0500_LatLon0.15_PT072H.grib2 2026-04-30 04:17 1.5M
20260430T00Z_MSC_GDPS_RelativeVorticity_IsbL-0700_LatLon0.15_PT072H.grib2 2026-04-30 04:17 1.3M
20260430T00Z_MSC_GDPS_RelativeVorticity_IsbL-0850_LatLon0.15_PT072H.grib2 2026-04-30 04:17 1.6M
20260430T00Z_MSC_GDPS_Runoff-Accum_Sfc_LatLon0.15_PT072H.grib2 2026-04-30 04:17 153K
20260430T00Z_MSC_GDPS_SensibleHeatNetFlux_Sfc_LatLon0.15_PT072H.grib2 2026-04-30 04:17 611K
20260430T00Z_MSC_GDPS_ShowalterIndex_IsbL-0500_LatLon0.15_PT072H.grib2 2026-04-30 04:17 6.2M
20260430T00Z_MSC_GDPS_Snow-Accum12h_Sfc_LatLon0.15_PT072H.grib2 2026-04-30 04:17 1.5M
20260430T00Z_MSC_GDPS_Snow-Accum1h_Sfc_LatLon0.15_PT072H.grib2 2026-04-30 04:17 1.2M
20260430T00Z_MSC_GDPS_Snow-Accum24h_Sfc_LatLon0.15_PT072H.grib2 2026-04-30 04:17 1.5M
20260430T00Z_MSC_GDPS_Snow-Accum3h_Sfc_LatLon0.15_PT072H.grib2 2026-04-30 04:17 1.1M
20260430T00Z_MSC_GDPS_Snow-Accum6h_Sfc_LatLon0.15_PT072H.grib2 2026-04-30 04:17 1.4M
20260430T00Z_MSC_GDPS_Snow-Accum_Sfc_LatLon0.15_PT072H.grib2 2026-04-30 04:17 2.1M
20260430T00Z_MSC_GDPS_SnowDensity_Sfc_LatLon0.15_PT072H.grib2 2026-04-30 04:17 267K
20260430T00Z_MSC_GDPS_SnowDepth_Sfc_LatLon0.15_PT072H.grib2 2026-04-30 04:17 1.7M
20260430T00Z_MSC_GDPS_SoilTemp_DBS-0to10cm_LatLon0.15_PT072H.grib2 2026-04-30 04:17 506K
20260430T00Z_MSC_GDPS_SoilTemp_Sfc_LatLon0.15_PT072H.grib2 2026-04-30 04:17 558K
20260430T00Z_MSC_GDPS_SoilVolumetricIceContent_Sfc_LatLon0.15_PT072H.grib2 2026-04-30 04:17 200K
20260430T00Z_MSC_GDPS_SoilVolumetricWaterContent_DBS-0to10cm_LatLon0.15_PT072H.grib2 2026-04-30 04:17 587K
20260430T00Z_MSC_GDPS_SoilVolumetricWaterContent_DBS-0to1cm_LatLon0.15_PT072H.grib2 2026-04-30 04:17 653K
20260430T00Z_MSC_GDPS_SpecificHumidity_AGL-120m_LatLon0.15_PT072H.grib2 2026-04-30 04:17 1.1M
20260430T00Z_MSC_GDPS_SpecificHumidity_AGL-2m_LatLon0.15_PT072H.grib2 2026-04-30 04:17 1.2M
20260430T00Z_MSC_GDPS_SpecificHumidity_AGL-40m_LatLon0.15_PT072H.grib2 2026-04-30 04:17 1.1M
20260430T00Z_MSC_GDPS_SpecificHumidity_AGL-80m_LatLon0.15_PT072H.grib2 2026-04-30 04:17 1.1M
20260430T00Z_MSC_GDPS_SpecificHumidity_IsbL-0001_LatLon0.15_PT072H.grib2 2026-04-30 04:17 1.3M
20260430T00Z_MSC_GDPS_SpecificHumidity_IsbL-0005_LatLon0.15_PT072H.grib2 2026-04-30 04:17 1.2M
20260430T00Z_MSC_GDPS_SpecificHumidity_IsbL-0010_LatLon0.15_PT072H.grib2 2026-04-30 04:17 1.3M
20260430T00Z_MSC_GDPS_SpecificHumidity_IsbL-0020_LatLon0.15_PT072H.grib2 2026-04-30 04:17 1.4M
20260430T00Z_MSC_GDPS_SpecificHumidity_IsbL-0030_LatLon0.15_PT072H.grib2 2026-04-30 04:17 1.3M
20260430T00Z_MSC_GDPS_SpecificHumidity_IsbL-0050_LatLon0.15_PT072H.grib2 2026-04-30 04:17 1.3M
20260430T00Z_MSC_GDPS_SpecificHumidity_IsbL-0100_LatLon0.15_PT072H.grib2 2026-04-30 04:17 1.3M
20260430T00Z_MSC_GDPS_SpecificHumidity_IsbL-0150_LatLon0.15_PT072H.grib2 2026-04-30 04:17 1.3M
20260430T00Z_MSC_GDPS_SpecificHumidity_IsbL-0175_LatLon0.15_PT072H.grib2 2026-04-30 04:17 1.2M
20260430T00Z_MSC_GDPS_SpecificHumidity_IsbL-0200_LatLon0.15_PT072H.grib2 2026-04-30 04:17 1.3M
20260430T00Z_MSC_GDPS_SpecificHumidity_IsbL-0225_LatLon0.15_PT072H.grib2 2026-04-30 04:17 1.3M
20260430T00Z_MSC_GDPS_SpecificHumidity_IsbL-0250_LatLon0.15_PT072H.grib2 2026-04-30 04:17 1.4M
20260430T00Z_MSC_GDPS_SpecificHumidity_IsbL-0275_LatLon0.15_PT072H.grib2 2026-04-30 04:17 1.3M
20260430T00Z_MSC_GDPS_SpecificHumidity_IsbL-0300_LatLon0.15_PT072H.grib2 2026-04-30 04:17 1.2M
20260430T00Z_MSC_GDPS_SpecificHumidity_IsbL-0350_LatLon0.15_PT072H.grib2 2026-04-30 04:17 1.2M
20260430T00Z_MSC_GDPS_SpecificHumidity_IsbL-0400_LatLon0.15_PT072H.grib2 2026-04-30 04:17 1.5M
20260430T00Z_MSC_GDPS_SpecificHumidity_IsbL-0450_LatLon0.15_PT072H.grib2 2026-04-30 04:17 1.6M
20260430T00Z_MSC_GDPS_SpecificHumidity_IsbL-0500_LatLon0.15_PT072H.grib2 2026-04-30 04:17 1.4M
20260430T00Z_MSC_GDPS_SpecificHumidity_IsbL-0550_LatLon0.15_PT072H.grib2 2026-04-30 04:17 1.6M
20260430T00Z_MSC_GDPS_SpecificHumidity_IsbL-0600_LatLon0.15_PT072H.grib2 2026-04-30 04:17 1.7M
20260430T00Z_MSC_GDPS_SpecificHumidity_IsbL-0650_LatLon0.15_PT072H.grib2 2026-04-30 04:17 1.5M
20260430T00Z_MSC_GDPS_SpecificHumidity_IsbL-0700_LatLon0.15_PT072H.grib2 2026-04-30 04:17 1.6M
20260430T00Z_MSC_GDPS_SpecificHumidity_IsbL-0750_LatLon0.15_PT072H.grib2 2026-04-30 04:17 1.7M
20260430T00Z_MSC_GDPS_SpecificHumidity_IsbL-0800_LatLon0.15_PT072H.grib2 2026-04-30 04:17 1.8M
20260430T00Z_MSC_GDPS_SpecificHumidity_IsbL-0850_LatLon0.15_PT072H.grib2 2026-04-30 04:17 1.9M
20260430T00Z_MSC_GDPS_SpecificHumidity_IsbL-0875_LatLon0.15_PT072H.grib2 2026-04-30 04:17 1.9M
20260430T00Z_MSC_GDPS_SpecificHumidity_IsbL-0900_LatLon0.15_PT072H.grib2 2026-04-30 04:17 1.9M
20260430T00Z_MSC_GDPS_SpecificHumidity_IsbL-0925_LatLon0.15_PT072H.grib2 2026-04-30 04:17 1.9M
20260430T00Z_MSC_GDPS_SpecificHumidity_IsbL-0950_LatLon0.15_PT072H.grib2 2026-04-30 04:17 1.6M
20260430T00Z_MSC_GDPS_SpecificHumidity_IsbL-0970_LatLon0.15_PT072H.grib2 2026-04-30 04:17 1.5M
20260430T00Z_MSC_GDPS_SpecificHumidity_IsbL-0985_LatLon0.15_PT072H.grib2 2026-04-30 04:17 1.5M
20260430T00Z_MSC_GDPS_SpecificHumidity_IsbL-1000_LatLon0.15_PT072H.grib2 2026-04-30 04:17 1.5M
20260430T00Z_MSC_GDPS_SpecificHumidity_IsbL-1015_LatLon0.15_PT072H.grib2 2026-04-30 04:17 1.4M
20260430T00Z_MSC_GDPS_SpecificHumidity_Sfc_LatLon0.15_PT072H.grib2 2026-04-30 04:17 629K
20260430T00Z_MSC_GDPS_Thickness_IsbL-0850to0700_LatLon0.15_PT072H.grib2 2026-04-30 04:17 465K
20260430T00Z_MSC_GDPS_Thickness_IsbL-1000to0500_LatLon0.15_PT072H.grib2 2026-04-30 04:17 372K
20260430T00Z_MSC_GDPS_Thickness_IsbL-1000to0850_LatLon0.15_PT072H.grib2 2026-04-30 04:17 486K
20260430T00Z_MSC_GDPS_TotalCloudCover_Sfc_LatLon0.15_PT072H.grib2 2026-04-30 04:17 823K
20260430T00Z_MSC_GDPS_TotalTotalsIndex_Sfc_LatLon0.15_PT072H.grib2 2026-04-30 04:17 6.2M
20260430T00Z_MSC_GDPS_UVIndex-ClearSky_Sfc_LatLon0.15_PT072H.grib2 2026-04-30 04:50 1.0M
20260430T00Z_MSC_GDPS_UVIndex_Sfc_LatLon0.15_PT072H.grib2 2026-04-30 04:50 1.5M
20260430T00Z_MSC_GDPS_UpwardLongwaveRadiationFlux_NTAtm_LatLon0.15_PT072H.grib2 2026-04-30 04:17 1.1M
20260430T00Z_MSC_GDPS_VerticalVelocity_IsbL-0200_LatLon0.15_PT072H.grib2 2026-04-30 04:17 1.2M
20260430T00Z_MSC_GDPS_VerticalVelocity_IsbL-0250_LatLon0.15_PT072H.grib2 2026-04-30 04:17 1.0M
20260430T00Z_MSC_GDPS_VerticalVelocity_IsbL-0500_LatLon0.15_PT072H.grib2 2026-04-30 04:17 1.3M
20260430T00Z_MSC_GDPS_VerticalVelocity_IsbL-0600_LatLon0.15_PT072H.grib2 2026-04-30 04:17 1.1M
20260430T00Z_MSC_GDPS_VerticalVelocity_IsbL-0700_LatLon0.15_PT072H.grib2 2026-04-30 04:17 1.4M
20260430T00Z_MSC_GDPS_VerticalVelocity_IsbL-0850_LatLon0.15_PT072H.grib2 2026-04-30 04:17 1.3M
20260430T00Z_MSC_GDPS_WindChill_Sfc_LatLon0.15_PT072H.grib2 2026-04-30 04:17 5.3M
20260430T00Z_MSC_GDPS_WindDir_AGL-10m_LatLon0.15_PT072H.grib2 2026-04-30 04:17 1.3M
20260430T00Z_MSC_GDPS_WindDir_AGL-120m_LatLon0.15_PT072H.grib2 2026-04-30 04:17 1.3M
20260430T00Z_MSC_GDPS_WindDir_AGL-40m_LatLon0.15_PT072H.grib2 2026-04-30 04:17 1.4M
20260430T00Z_MSC_GDPS_WindDir_AGL-80m_LatLon0.15_PT072H.grib2 2026-04-30 04:17 1.4M
20260430T00Z_MSC_GDPS_WindDir_IsbL-0001_LatLon0.15_PT072H.grib2 2026-04-30 04:17 691K
20260430T00Z_MSC_GDPS_WindDir_IsbL-0005_LatLon0.15_PT072H.grib2 2026-04-30 04:17 797K
20260430T00Z_MSC_GDPS_WindDir_IsbL-0010_LatLon0.15_PT072H.grib2 2026-04-30 04:17 832K
20260430T00Z_MSC_GDPS_WindDir_IsbL-0020_LatLon0.15_PT072H.grib2 2026-04-30 04:17 951K
20260430T00Z_MSC_GDPS_WindDir_IsbL-0030_LatLon0.15_PT072H.grib2 2026-04-30 04:17 934K
20260430T00Z_MSC_GDPS_WindDir_IsbL-0050_LatLon0.15_PT072H.grib2 2026-04-30 04:17 948K
20260430T00Z_MSC_GDPS_WindDir_IsbL-0100_LatLon0.15_PT072H.grib2 2026-04-30 04:17 1.0M
20260430T00Z_MSC_GDPS_WindDir_IsbL-0150_LatLon0.15_PT072H.grib2 2026-04-30 04:17 1.0M
20260430T00Z_MSC_GDPS_WindDir_IsbL-0175_LatLon0.15_PT072H.grib2 2026-04-30 04:17 1.0M
20260430T00Z_MSC_GDPS_WindDir_IsbL-0200_LatLon0.15_PT072H.grib2 2026-04-30 04:17 1.1M
20260430T00Z_MSC_GDPS_WindDir_IsbL-0225_LatLon0.15_PT072H.grib2 2026-04-30 04:17 1.1M
20260430T00Z_MSC_GDPS_WindDir_IsbL-0250_LatLon0.15_PT072H.grib2 2026-04-30 04:17 1.1M
20260430T00Z_MSC_GDPS_WindDir_IsbL-0275_LatLon0.15_PT072H.grib2 2026-04-30 04:17 1.2M
20260430T00Z_MSC_GDPS_WindDir_IsbL-0300_LatLon0.15_PT072H.grib2 2026-04-30 04:17 1.2M
20260430T00Z_MSC_GDPS_WindDir_IsbL-0350_LatLon0.15_PT072H.grib2 2026-04-30 04:17 1.2M
20260430T00Z_MSC_GDPS_WindDir_IsbL-0400_LatLon0.15_PT072H.grib2 2026-04-30 04:17 1.3M
20260430T00Z_MSC_GDPS_WindDir_IsbL-0450_LatLon0.15_PT072H.grib2 2026-04-30 04:17 1.3M
20260430T00Z_MSC_GDPS_WindDir_IsbL-0500_LatLon0.15_PT072H.grib2 2026-04-30 04:17 1.3M
20260430T00Z_MSC_GDPS_WindDir_IsbL-0550_LatLon0.15_PT072H.grib2 2026-04-30 04:17 1.4M
20260430T00Z_MSC_GDPS_WindDir_IsbL-0600_LatLon0.15_PT072H.grib2 2026-04-30 04:17 1.4M
20260430T00Z_MSC_GDPS_WindDir_IsbL-0650_LatLon0.15_PT072H.grib2 2026-04-30 04:17 1.5M
20260430T00Z_MSC_GDPS_WindDir_IsbL-0700_LatLon0.15_PT072H.grib2 2026-04-30 04:17 1.6M
20260430T00Z_MSC_GDPS_WindDir_IsbL-0750_LatLon0.15_PT072H.grib2 2026-04-30 04:17 1.7M
20260430T00Z_MSC_GDPS_WindDir_IsbL-0800_LatLon0.15_PT072H.grib2 2026-04-30 04:17 1.8M
20260430T00Z_MSC_GDPS_WindDir_IsbL-0850_LatLon0.15_PT072H.grib2 2026-04-30 04:17 1.9M
20260430T00Z_MSC_GDPS_WindDir_IsbL-0875_LatLon0.15_PT072H.grib2 2026-04-30 04:17 1.9M
20260430T00Z_MSC_GDPS_WindDir_IsbL-0900_LatLon0.15_PT072H.grib2 2026-04-30 04:17 2.0M
20260430T00Z_MSC_GDPS_WindDir_IsbL-0925_LatLon0.15_PT072H.grib2 2026-04-30 04:17 2.0M
20260430T00Z_MSC_GDPS_WindDir_IsbL-0950_LatLon0.15_PT072H.grib2 2026-04-30 04:17 2.0M
20260430T00Z_MSC_GDPS_WindDir_IsbL-0970_LatLon0.15_PT072H.grib2 2026-04-30 04:17 2.0M
20260430T00Z_MSC_GDPS_WindDir_IsbL-0985_LatLon0.15_PT072H.grib2 2026-04-30 04:17 2.0M
20260430T00Z_MSC_GDPS_WindDir_IsbL-1000_LatLon0.15_PT072H.grib2 2026-04-30 04:17 2.1M
20260430T00Z_MSC_GDPS_WindDir_IsbL-1015_LatLon0.15_PT072H.grib2 2026-04-30 04:17 2.0M
20260430T00Z_MSC_GDPS_WindGust-Max_AGL-10m_LatLon0.15_PT072H.grib2 2026-04-30 04:17 2.2M
20260430T00Z_MSC_GDPS_WindGust-Min_AGL-10m_LatLon0.15_PT072H.grib2 2026-04-30 04:17 2.1M
20260430T00Z_MSC_GDPS_WindGust_AGL-10m_LatLon0.15_PT072H.grib2 2026-04-30 04:17 2.1M
20260430T00Z_MSC_GDPS_WindSpeed_AGL-10m_LatLon0.15_PT072H.grib2 2026-04-30 04:17 1.1M
20260430T00Z_MSC_GDPS_WindSpeed_AGL-120m_LatLon0.15_PT072H.grib2 2026-04-30 04:17 1.3M
20260430T00Z_MSC_GDPS_WindSpeed_AGL-40m_LatLon0.15_PT072H.grib2 2026-04-30 04:17 1.2M
20260430T00Z_MSC_GDPS_WindSpeed_AGL-80m_LatLon0.15_PT072H.grib2 2026-04-30 04:17 1.2M
20260430T00Z_MSC_GDPS_WindSpeed_IsbL-0001_LatLon0.15_PT072H.grib2 2026-04-30 04:17 640K
20260430T00Z_MSC_GDPS_WindSpeed_IsbL-0005_LatLon0.15_PT072H.grib2 2026-04-30 04:17 691K
20260430T00Z_MSC_GDPS_WindSpeed_IsbL-0010_LatLon0.15_PT072H.grib2 2026-04-30 04:17 626K
20260430T00Z_MSC_GDPS_WindSpeed_IsbL-0020_LatLon0.15_PT072H.grib2 2026-04-30 04:17 667K
20260430T00Z_MSC_GDPS_WindSpeed_IsbL-0030_LatLon0.15_PT072H.grib2 2026-04-30 04:17 862K
20260430T00Z_MSC_GDPS_WindSpeed_IsbL-0050_LatLon0.15_PT072H.grib2 2026-04-30 04:17 909K
20260430T00Z_MSC_GDPS_WindSpeed_IsbL-0100_LatLon0.15_PT072H.grib2 2026-04-30 04:17 1.1M
20260430T00Z_MSC_GDPS_WindSpeed_IsbL-0150_LatLon0.15_PT072H.grib2 2026-04-30 04:17 949K
20260430T00Z_MSC_GDPS_WindSpeed_IsbL-0175_LatLon0.15_PT072H.grib2 2026-04-30 04:17 1.0M
20260430T00Z_MSC_GDPS_WindSpeed_IsbL-0200_LatLon0.15_PT072H.grib2 2026-04-30 04:17 1.1M
20260430T00Z_MSC_GDPS_WindSpeed_IsbL-0225_LatLon0.15_PT072H.grib2 2026-04-30 04:17 1.1M
20260430T00Z_MSC_GDPS_WindSpeed_IsbL-0250_LatLon0.15_PT072H.grib2 2026-04-30 04:17 1.1M
20260430T00Z_MSC_GDPS_WindSpeed_IsbL-0275_LatLon0.15_PT072H.grib2 2026-04-30 04:17 1.1M
20260430T00Z_MSC_GDPS_WindSpeed_IsbL-0300_LatLon0.15_PT072H.grib2 2026-04-30 04:17 1.1M
20260430T00Z_MSC_GDPS_WindSpeed_IsbL-0350_LatLon0.15_PT072H.grib2 2026-04-30 04:17 1.1M
20260430T00Z_MSC_GDPS_WindSpeed_IsbL-0400_LatLon0.15_PT072H.grib2 2026-04-30 04:17 1.1M
20260430T00Z_MSC_GDPS_WindSpeed_IsbL-0450_LatLon0.15_PT072H.grib2 2026-04-30 04:17 1.1M
20260430T00Z_MSC_GDPS_WindSpeed_IsbL-0500_LatLon0.15_PT072H.grib2 2026-04-30 04:17 1.1M
20260430T00Z_MSC_GDPS_WindSpeed_IsbL-0550_LatLon0.15_PT072H.grib2 2026-04-30 04:17 1.1M
20260430T00Z_MSC_GDPS_WindSpeed_IsbL-0600_LatLon0.15_PT072H.grib2 2026-04-30 04:17 1.1M
20260430T00Z_MSC_GDPS_WindSpeed_IsbL-0650_LatLon0.15_PT072H.grib2 2026-04-30 04:17 1.4M
20260430T00Z_MSC_GDPS_WindSpeed_IsbL-0700_LatLon0.15_PT072H.grib2 2026-04-30 04:17 1.5M
20260430T00Z_MSC_GDPS_WindSpeed_IsbL-0750_LatLon0.15_PT072H.grib2 2026-04-30 04:17 1.5M
20260430T00Z_MSC_GDPS_WindSpeed_IsbL-0800_LatLon0.15_PT072H.grib2 2026-04-30 04:17 1.6M
20260430T00Z_MSC_GDPS_WindSpeed_IsbL-0850_LatLon0.15_PT072H.grib2 2026-04-30 04:17 1.7M
20260430T00Z_MSC_GDPS_WindSpeed_IsbL-0875_LatLon0.15_PT072H.grib2 2026-04-30 04:17 1.8M
20260430T00Z_MSC_GDPS_WindSpeed_IsbL-0900_LatLon0.15_PT072H.grib2 2026-04-30 04:17 1.8M
20260430T00Z_MSC_GDPS_WindSpeed_IsbL-0925_LatLon0.15_PT072H.grib2 2026-04-30 04:17 1.8M
20260430T00Z_MSC_GDPS_WindSpeed_IsbL-0950_LatLon0.15_PT072H.grib2 2026-04-30 04:17 1.8M
20260430T00Z_MSC_GDPS_WindSpeed_IsbL-0970_LatLon0.15_PT072H.grib2 2026-04-30 04:17 1.9M
20260430T00Z_MSC_GDPS_WindSpeed_IsbL-0985_LatLon0.15_PT072H.grib2 2026-04-30 04:17 1.9M
20260430T00Z_MSC_GDPS_WindSpeed_IsbL-1000_LatLon0.15_PT072H.grib2 2026-04-30 04:17 1.9M
20260430T00Z_MSC_GDPS_WindSpeed_IsbL-1015_LatLon0.15_PT072H.grib2 2026-04-30 04:17 1.8M
20260430T00Z_MSC_GDPS_WindU_AGL-10m_LatLon0.15_PT072H.grib2 2026-04-30 04:17 1.3M
20260430T00Z_MSC_GDPS_WindU_AGL-120m_LatLon0.15_PT072H.grib2 2026-04-30 04:17 1.0M
20260430T00Z_MSC_GDPS_WindU_AGL-40m_LatLon0.15_PT072H.grib2 2026-04-30 04:17 1.0M
20260430T00Z_MSC_GDPS_WindU_AGL-80m_LatLon0.15_PT072H.grib2 2026-04-30 04:17 1.0M
20260430T00Z_MSC_GDPS_WindU_IsbL-0001_LatLon0.15_PT072H.grib2 2026-04-30 04:17 645K
20260430T00Z_MSC_GDPS_WindU_IsbL-0005_LatLon0.15_PT072H.grib2 2026-04-30 04:17 691K
20260430T00Z_MSC_GDPS_WindU_IsbL-0010_LatLon0.15_PT072H.grib2 2026-04-30 04:17 701K
20260430T00Z_MSC_GDPS_WindU_IsbL-0020_LatLon0.15_PT072H.grib2 2026-04-30 04:17 733K
20260430T00Z_MSC_GDPS_WindU_IsbL-0030_LatLon0.15_PT072H.grib2 2026-04-30 04:17 738K
20260430T00Z_MSC_GDPS_WindU_IsbL-0050_LatLon0.15_PT072H.grib2 2026-04-30 04:17 768K
20260430T00Z_MSC_GDPS_WindU_IsbL-0100_LatLon0.15_PT072H.grib2 2026-04-30 04:17 925K
20260430T00Z_MSC_GDPS_WindU_IsbL-0150_LatLon0.15_PT072H.grib2 2026-04-30 04:17 1.0M
20260430T00Z_MSC_GDPS_WindU_IsbL-0175_LatLon0.15_PT072H.grib2 2026-04-30 04:17 1.0M
20260430T00Z_MSC_GDPS_WindU_IsbL-0200_LatLon0.15_PT072H.grib2 2026-04-30 04:17 1.0M
20260430T00Z_MSC_GDPS_WindU_IsbL-0225_LatLon0.15_PT072H.grib2 2026-04-30 04:17 852K
20260430T00Z_MSC_GDPS_WindU_IsbL-0250_LatLon0.15_PT072H.grib2 2026-04-30 04:17 854K
20260430T00Z_MSC_GDPS_WindU_IsbL-0275_LatLon0.15_PT072H.grib2 2026-04-30 04:17 882K
20260430T00Z_MSC_GDPS_WindU_IsbL-0300_LatLon0.15_PT072H.grib2 2026-04-30 04:17 874K
20260430T00Z_MSC_GDPS_WindU_IsbL-0350_LatLon0.15_PT072H.grib2 2026-04-30 04:17 888K
20260430T00Z_MSC_GDPS_WindU_IsbL-0400_LatLon0.15_PT072H.grib2 2026-04-30 04:17 890K
20260430T00Z_MSC_GDPS_WindU_IsbL-0450_LatLon0.15_PT072H.grib2 2026-04-30 04:17 1.1M
20260430T00Z_MSC_GDPS_WindU_IsbL-0500_LatLon0.15_PT072H.grib2 2026-04-30 04:17 1.1M
20260430T00Z_MSC_GDPS_WindU_IsbL-0550_LatLon0.15_PT072H.grib2 2026-04-30 04:17 1.1M
20260430T00Z_MSC_GDPS_WindU_IsbL-0600_LatLon0.15_PT072H.grib2 2026-04-30 04:17 1.1M
20260430T00Z_MSC_GDPS_WindU_IsbL-0650_LatLon0.15_PT072H.grib2 2026-04-30 04:17 1.2M
20260430T00Z_MSC_GDPS_WindU_IsbL-0700_LatLon0.15_PT072H.grib2 2026-04-30 04:17 1.2M
20260430T00Z_MSC_GDPS_WindU_IsbL-0750_LatLon0.15_PT072H.grib2 2026-04-30 04:17 1.3M
20260430T00Z_MSC_GDPS_WindU_IsbL-0800_LatLon0.15_PT072H.grib2 2026-04-30 04:17 1.3M
20260430T00Z_MSC_GDPS_WindU_IsbL-0850_LatLon0.15_PT072H.grib2 2026-04-30 04:17 1.4M
20260430T00Z_MSC_GDPS_WindU_IsbL-0875_LatLon0.15_PT072H.grib2 2026-04-30 04:17 1.5M
20260430T00Z_MSC_GDPS_WindU_IsbL-0900_LatLon0.15_PT072H.grib2 2026-04-30 04:17 1.5M
20260430T00Z_MSC_GDPS_WindU_IsbL-0925_LatLon0.15_PT072H.grib2 2026-04-30 04:17 1.5M
20260430T00Z_MSC_GDPS_WindU_IsbL-0950_LatLon0.15_PT072H.grib2 2026-04-30 04:17 1.4M
20260430T00Z_MSC_GDPS_WindU_IsbL-0970_LatLon0.15_PT072H.grib2 2026-04-30 04:17 1.4M
20260430T00Z_MSC_GDPS_WindU_IsbL-0985_LatLon0.15_PT072H.grib2 2026-04-30 04:17 1.4M
20260430T00Z_MSC_GDPS_WindU_IsbL-1000_LatLon0.15_PT072H.grib2 2026-04-30 04:17 1.4M
20260430T00Z_MSC_GDPS_WindU_IsbL-1015_LatLon0.15_PT072H.grib2 2026-04-30 04:17 1.3M
20260430T00Z_MSC_GDPS_WindV_AGL-10m_LatLon0.15_PT072H.grib2 2026-04-30 04:17 1.3M
20260430T00Z_MSC_GDPS_WindV_AGL-120m_LatLon0.15_PT072H.grib2 2026-04-30 04:17 1.0M
20260430T00Z_MSC_GDPS_WindV_AGL-40m_LatLon0.15_PT072H.grib2 2026-04-30 04:17 968K
20260430T00Z_MSC_GDPS_WindV_AGL-80m_LatLon0.15_PT072H.grib2 2026-04-30 04:17 1.0M
20260430T00Z_MSC_GDPS_WindV_IsbL-0001_LatLon0.15_PT072H.grib2 2026-04-30 04:17 776K
20260430T00Z_MSC_GDPS_WindV_IsbL-0005_LatLon0.15_PT072H.grib2 2026-04-30 04:17 856K
20260430T00Z_MSC_GDPS_WindV_IsbL-0010_LatLon0.15_PT072H.grib2 2026-04-30 04:17 885K
20260430T00Z_MSC_GDPS_WindV_IsbL-0020_LatLon0.15_PT072H.grib2 2026-04-30 04:17 935K
20260430T00Z_MSC_GDPS_WindV_IsbL-0030_LatLon0.15_PT072H.grib2 2026-04-30 04:17 937K
20260430T00Z_MSC_GDPS_WindV_IsbL-0050_LatLon0.15_PT072H.grib2 2026-04-30 04:17 1.0M
20260430T00Z_MSC_GDPS_WindV_IsbL-0100_LatLon0.15_PT072H.grib2 2026-04-30 04:17 1.1M
20260430T00Z_MSC_GDPS_WindV_IsbL-0150_LatLon0.15_PT072H.grib2 2026-04-30 04:17 1.0M
20260430T00Z_MSC_GDPS_WindV_IsbL-0175_LatLon0.15_PT072H.grib2 2026-04-30 04:17 1.0M
20260430T00Z_MSC_GDPS_WindV_IsbL-0200_LatLon0.15_PT072H.grib2 2026-04-30 04:17 842K
20260430T00Z_MSC_GDPS_WindV_IsbL-0225_LatLon0.15_PT072H.grib2 2026-04-30 04:17 849K
20260430T00Z_MSC_GDPS_WindV_IsbL-0250_LatLon0.15_PT072H.grib2 2026-04-30 04:17 848K
20260430T00Z_MSC_GDPS_WindV_IsbL-0275_LatLon0.15_PT072H.grib2 2026-04-30 04:17 876K
20260430T00Z_MSC_GDPS_WindV_IsbL-0300_LatLon0.15_PT072H.grib2 2026-04-30 04:17 863K
20260430T00Z_MSC_GDPS_WindV_IsbL-0350_LatLon0.15_PT072H.grib2 2026-04-30 04:17 876K
20260430T00Z_MSC_GDPS_WindV_IsbL-0400_LatLon0.15_PT072H.grib2 2026-04-30 04:17 878K
20260430T00Z_MSC_GDPS_WindV_IsbL-0450_LatLon0.15_PT072H.grib2 2026-04-30 04:17 882K
20260430T00Z_MSC_GDPS_WindV_IsbL-0500_LatLon0.15_PT072H.grib2 2026-04-30 04:17 1.1M
20260430T00Z_MSC_GDPS_WindV_IsbL-0550_LatLon0.15_PT072H.grib2 2026-04-30 04:17 1.1M
20260430T00Z_MSC_GDPS_WindV_IsbL-0600_LatLon0.15_PT072H.grib2 2026-04-30 04:17 1.1M
20260430T00Z_MSC_GDPS_WindV_IsbL-0650_LatLon0.15_PT072H.grib2 2026-04-30 04:17 1.2M
20260430T00Z_MSC_GDPS_WindV_IsbL-0700_LatLon0.15_PT072H.grib2 2026-04-30 04:17 1.2M
20260430T00Z_MSC_GDPS_WindV_IsbL-0750_LatLon0.15_PT072H.grib2 2026-04-30 04:17 1.3M
20260430T00Z_MSC_GDPS_WindV_IsbL-0800_LatLon0.15_PT072H.grib2 2026-04-30 04:17 1.3M
20260430T00Z_MSC_GDPS_WindV_IsbL-0850_LatLon0.15_PT072H.grib2 2026-04-30 04:17 1.4M
20260430T00Z_MSC_GDPS_WindV_IsbL-0875_LatLon0.15_PT072H.grib2 2026-04-30 04:17 1.4M
20260430T00Z_MSC_GDPS_WindV_IsbL-0900_LatLon0.15_PT072H.grib2 2026-04-30 04:17 1.5M
20260430T00Z_MSC_GDPS_WindV_IsbL-0925_LatLon0.15_PT072H.grib2 2026-04-30 04:17 1.5M
20260430T00Z_MSC_GDPS_WindV_IsbL-0950_LatLon0.15_PT072H.grib2 2026-04-30 04:17 1.4M
20260430T00Z_MSC_GDPS_WindV_IsbL-0970_LatLon0.15_PT072H.grib2 2026-04-30 04:17 1.4M
20260430T00Z_MSC_GDPS_WindV_IsbL-0985_LatLon0.15_PT072H.grib2 2026-04-30 04:17 1.4M
20260430T00Z_MSC_GDPS_WindV_IsbL-1000_LatLon0.15_PT072H.grib2 2026-04-30 04:17 1.4M
20260430T00Z_MSC_GDPS_WindV_IsbL-1015_LatLon0.15_PT072H.grib2 2026-04-30 04:17 1.3M